Weather in Stanichki

Russia / Smolensk Oblast     54°43′22″N   32°02′02″E
temp.,
°C
wind,
m/s
gust,
m/s
humid.,
%
clouds,
%
prec.,
mm/h
press.,
hPa
HPBL,
m
13 april, tue
tue1300:00+9ese3591100 0.2 1022112
03:00+9e2295100 0.8 102146
06:00+8ese229298 0.0 102111
09:00+11se2381100 0.0 1021205
12:00+16sse4768100 0.0 1020725
15:00+17s6858100 0.3 10191275
18:00+13ssw3680100 0.2 1018310
21:00+11sse3585100 0.2 1018150
14 april, wed
wed1400:00+10sse2591100 0.4 1018161
03:00+10sse2394100 0.5 101763
06:00+9s239798 0.4 101688
09:00+10sse259298 0.6 1017286
12:00+12sse4685100 0.8 1017514
15:00+14s4467100 1.6 1016956
18:00+13se2471100 0.1 1016639
21:00+10ese2385100 0.1 101733
15 april, thu
thu1500:00+9e3390100 0.2 101638
03:00+8ne3493100 0.6 101692
06:00+8nne3695100 0.3 1015148
09:00+9nne3791100 0.4 1015299
12:00+12ne4570100 0.4 1014574
15:00+9ese3694100 2.1 1015298
18:00+9ese3594100 1.5 1015300
21:00+8ene3792100 1.7 1015279
16 april, fri
fri1600:00+8ne5109491 0.4 1015345
03:00+7ene5119497 0.4 1015323
06:00+7ne7139596 0.2 1015427
09:00+8ene71390100 0.3 1016471
12:00+11ene71081100 0.0 1017826
15:00+11ne71181100 1.3 1016801
18:00+11ene81286100 0.9 1016650
21:00+10ne81492100 2.4 1017478
17 april, sat
sat1700:00+9ene61192100 0.5 1018511
03:00+8ene51095100 0.8 1019439
06:00+8ene61091100 0.4 1020602
09:00+8ene489399 0.5 1021467
12:00+9ene5789100 0.0 1022707
15:00+11ene6107882 0.1 1022870
18:00+13ene7127292 0.1 1021926
21:00+11ene8167723 0.1 1022601